TimeAKST,TemperatureF,Dew PointF,Humidity,Sea Level PressureIn,VisibilityMPH,Wind Direction,Wind SpeedMPH,Gust SpeedMPH,PrecipitationIn,Events,Conditions,WindDirDegrees,DateUTC
12:53 AM,-13.0,-17.0,82,29.42,2.0,Calm,Calm,-,0.01,Snow,Light Snow,0,2011-12-29 09:53:00
1:53 AM,-13.0,-17.0,82,29.43,2.0,Calm,Calm,-,0.00,Snow,Light Snow,0,2011-12-29 10:53:00
3:53 AM,-15.0,-20.0,78,29.46,2.5,Calm,Calm,-,0.01,Snow,Light Snow,0,2011-12-29 12:53:00
4:34 AM,-16.6,-22.0,76,29.41,3.0,Calm,Calm,-,0.00,Snow,Light Snow,0,2011-12-29 13:34:00
4:53 AM,-18.0,-22.0,82,29.47,6.0,Calm,Calm,-,0.00,Snow,Light Snow,0,2011-12-29 13:53:00
5:53 AM,-17.0,-22.0,78,29.49,6.0,Calm,Calm,-,0.00,Snow,Light Snow,0,2011-12-29 14:53:00
6:53 AM,-18.0,-23.1,78,29.51,4.0,Calm,Calm,-,0.00,Snow,Light Snow,0,2011-12-29 15:53:00
7:53 AM,-22.0,-27.0,77,29.54,6.0,Calm,Calm,-,0.00,Snow,Light Snow,0,2011-12-29 16:53:00
8:40 AM,-25.6,-29.2,83,29.49,6.0,Calm,Calm,-,0.00,Snow,Light Snow,0,2011-12-29 17:40:00
8:53 AM,-26.0,-29.9,81,29.56,6.0,Calm,Calm,-,0.00,,Scattered Clouds,0,2011-12-29 17:53:00
9:53 AM,-27.9,-32.1,81,29.58,6.0,Calm,Calm,-,N/A,,Scattered Clouds,0,2011-12-29 18:53:00
10:53 AM,-29.9,-9999,N/A,29.60,3.0,Calm,Calm,-,N/A,,Scattered Clouds,0,2011-12-29 19:53:00
11:53 AM,-29.0,-34.1,77,29.61,6.0,Calm,Calm,-,N/A,,Scattered Clouds,0,2011-12-29 20:53:00
12:53 PM,-27.9,-33.0,77,29.62,10.0,Calm,Calm,-,N/A,Fog,Scattered Clouds,0,2011-12-29 21:53:00
1:53 PM,-29.0,-33.0,81,29.63,6.0,Calm,Calm,-,N/A,,Scattered Clouds,0,2011-12-29 22:53:00
2:53 PM,-31.0,-9999,N/A,29.64,6.0,Calm,Calm,-,N/A,,Scattered Clouds,0,2011-12-29 23:53:00
3:53 PM,-29.0,-36.0,69,29.64,10.0,Calm,Calm,-,N/A,,Scattered Clouds,0,2011-12-30 00:53:00
4:53 PM,-32.1,-9999,N/A,29.65,10.0,Calm,Calm,-,N/A,,Scattered Clouds,0,2011-12-30 01:53:00
5:53 PM,-31.0,-9999,N/A,29.65,6.0,SSE,3.5,-,N/A,,Scattered Clouds,160,2011-12-30 02:53:00
6:53 PM,-32.1,-9999,N/A,29.64,6.0,Calm,Calm,-,N/A,,Scattered Clouds,0,2011-12-30 03:53:00
7:53 PM,-32.1,-9999,N/A,29.64,6.0,Calm,Calm,-,N/A,,Scattered Clouds,0,2011-12-30 04:53:00
8:53 PM,-33.0,-9999,N/A,29.64,6.0,Calm,Calm,-,N/A,,Scattered Clouds,0,2011-12-30 05:53:00
9:53 PM,-31.0,-9999,N/A,29.64,6.0,Calm,Calm,-,N/A,Snow,Light Snow,0,2011-12-30 06:53:00
10:53 PM,-29.0,-34.1,77,29.64,6.0,Calm,Calm,-,0.00,Snow,Light Snow,0,2011-12-30 07:53:00
11:53 PM,-27.0,-32.1,77,29.64,6.0,Calm,Calm,-,0.00,Snow,Light Snow,0,2011-12-30 08:53:00